Weather in Krasny Steklovar

Russia / Mari El Republic     56°13′20″N   48°47′27″E
temp.,
°C
wind,
m/s
gust,
m/s
humid.,
%
clouds,
%
prec.,
mm/h
press.,
hPa
HPBL,
m
28 september, tue
tue2800:00+3ene5118372 0.0 1024828
03:00+1ne412883 0.0 1025403
06:000ne411915 0.0 1027312
09:00+4ne48715 0.0 1027565
12:00+8ne5751100 0.0 10281164
15:00+8ne46505 0.0 10281262
18:00+4nne347122 0.0 103063
21:00+3nne2678100 0.0 1030117
29 september, wed
wed2900:00+2nne248060 0.0 103082
03:00+1n238516 0.0 103136
06:000n228825 0.0 103236
09:00+6nne34628 0.0 1032464
12:00+9nne344813 0.0 10311275
15:00+9n344617 0.0 10301440
18:00+5n22695 0.0 103113
21:00+3nne22797 0.0 103213
30 september, thu
thu3000:00+3nnw117798 0.0 103210
03:00+4wnw1175100 0.0 103232
06:00+4nw238658 0.0 103266
09:00+6wnw2481100 0.0 1032234
12:00+11wnw3462100 0.0 10311163
15:00+11wnw3463100 0.1 1030944
18:00+7wnw268193 0.0 1030121
21:00+8w3780100 0.0 1030213
1 october, fri
fri100:00+8w258543 0.0 1029152
03:00+5nw22965 0.0 103031
06:00+5nw24955 0.0 103061
09:00+10nnw34755 0.0 1030369
12:00+13nnw336260 0.0 1030859
15:00+14nw346263 0.0 1029972
18:00+9nw228111 0.0 103032
21:00+7nnw228616 0.0 103114
2 october, sat
sat200:00+6nw118967 0.0 103111
03:00+6nw119253 0.0 103110
06:00+6wnw119482 0.0 103211
09:00+10nw237864 0.0 1032300
12:00+14nw236442 0.0 1032901
15:00+14nw2362100 0.0 10311043
18:00+13nw2266100 0.0 103230
21:00+12wnw1170100 0.0 103311